Rbgn^[z[y[W
メイン
   新天体発見情報
     Comet P/2017 R1 = 2022 B2 (PANSTARRS)
投稿するにはまず登録を

スレッド表示 | 古いものから 前のトピック | 次のトピック | 下へ
投稿者 スレッド
佐藤裕久
投稿日時: 2022-2-23 12:05
モデレータ
登録日: 2005-6-12
居住地: 日本
投稿: 2573
オンライン
Comet P/2017 R1 = 2022 B2 (PANSTARRS)

M. Rudenko (小惑星センター)によると、小惑星センターは、1月25日、K. W. Wierzchos
によるMt Lemmonの1.5-m 反射望遠鏡と、2月10日にPan-STARRS2の1.8-m Ritchey-Chretien 
反射望遠鏡による2夜のCCD観測で独立して見つけられた天体は、P/2017 R1 (CBET 4430
参照)の検出であると確認した。
NK 4192の中野主一氏の予報に対し、Delta(T)は、-0.10 dayであった。
MPC 114599の予報に対するDelta(T)は、-0.04 dayであった。
彗星年表2022の佐藤裕久の参考軌道要素の修正値は、Delta(T) = -0.03 dayであった。

検出位置は次のとおり、

     2022 UT             R.A. (2000) Decl.       Mag.   Observer
     Jan. 25.51151   11 15 10.84   + 5 44 07.0   22.1   Wierzchos
          25.51663   11 15 10.70   + 5 44 07.9   20.9     "
          25.52175   11 15 10.61   + 5 44 08.5   20.8     "
          25.52686   11 15 10.48   + 5 44 09.9   21.1     "
     Feb. 10.50034   11 09 05.59   + 6 29 00.7   21.0   Pan-STARRS2
          10.51134   11 09 05.28   + 6 29 03.0   21.0     "
          10.52226   11 09 04.96   + 6 29 05.2   21.0     "
          10.53325   11 09 04.65   + 6 29 07.1   20.9     "

MPCの連結軌道要素と位置推算表は次のとおり、

Orbital elements:
    P/2017 R1 (PANSTARRS)                                                       
Epoch 2017 Mar. 28.0 TT = JDT 2457840.5                                         
T 2017 Apr. 8.21388 TT                                  Rudenko                 
q   3.3273595            (2000.0)            P               Q                  
n   0.11738491     Peri.  178.38102     +0.78839003     +0.61459991             
a   4.1310570      Node   143.65272     -0.56491607     +0.74042576             
e   0.1945501      Incl.    2.57336     -0.24353849     +0.27209674             
P   8.40                                                                        
From 79 observations 2017 July 18-2022 Feb. 10, mean residual 0".4.             
                                                                                
    P/2017 R1 (PANSTARRS)                                                       
Epoch 2025 Sept. 2.0 TT = JDT 2460920.5                                         
T 2025 Sept.  9.43106 TT                                Rudenko                 
q   3.3279063            (2000.0)            P               Q                  
n   0.11735374     Peri.  178.86536     +0.79289860     +0.60876993             
a   4.1317886      Node   143.59075     -0.55942426     +0.74458017             
e   0.1945604      Incl.    2.57481     -0.24157052     +0.27386045             
P   8.40                                                                        
From 79 observations 2017 July 18-2022 Feb. 10, mean residual 0".4.             
                                                                                
    P/2017 R1 (PANSTARRS)                                                       
Epoch 2022 Jan. 21.0 TT = JDT 2459600.5                                         
T 2025 Sept. 7.76840 TT                                 Rudenko                 
q   3.3260900            (2000.0)            P               Q                  
n   0.11721878     Peri.  178.71259     +0.79154373     +0.61053138             
a   4.1349593      Node   143.61616     -0.56108546     +0.74333240             
e   0.1956172      Incl.    2.57449     -0.24216034     +0.27332835             
P   8.41                                                                        
From 79 observations 2017 July 18-2022 Feb. 10, mean residual 0".4.             
                                                                                
Ephemeris:
Date    TT    R. A. (2000) Decl.     Delta      r    Elong.  Phase   m1
2022 01 17    11 17 12.0 +05 27 45   4.2205  4.8939   128.5     9.1  23.5
...
2022 02 01    11 13 02.6 +06 00 21   4.0471  4.8863   144.9     6.7  23.4
...
2022 02 09    11 09 46.5 +06 24 09   3.9767  4.8821   153.9     5.1  23.4
...
2022 02 15    11 06 56.4 +06 44 14   3.9355  4.8789   160.8     3.8  23.4
2022 02 16    11 06 26.5 +06 47 43   3.9297  4.8783   161.9     3.6  23.4
2022 02 17    11 05 56.2 +06 51 15   3.9241  4.8778   163.1     3.4  23.4
...
2022 02 23    11 02 46.9 +07 13 02   3.8972  4.8744   169.9     2.0  23.3
...
2022 03 03    10 58 21.4 +07 42 59   3.8788  4.8698   178.7     0.3  23.3
...
2022 03 18    10 50 05.5 +08 37 25   3.8984  4.8607   163.5     3.3  23.3

(MPEC 2022-D03、CBET 5100、oaa-comet 2934)

スレッド表示 | 古いものから 前のトピック | 次のトピック | トップ

投稿するにはまず登録を
 
© 1999 Tsutomu Seki.